When you browse on this site, cookies collect data to enhance your experience and personalize the content and advertising you see.
Visit our Privacy Policy to learn more. By continuing to use the site, you agree to this use of cookies and data.
  • In Romania
  • List of Countries
  • For 7 days
  • Water Temperature
  • Weather Map
  • Weather Widgets
  • user-avatar
    Login

    Hourly Weather Sololá

    Today, 21 August, Wednesday

    Time Temperature Precipitation Wind Pressure Humidity
    00:00 +13°C° 0.2 mm 1 mps 594 mmHg 94%
    01:00 +13°C° 0 mm 1 mps 593 mmHg 93%
    02:00 +13°C° 0 mm 1 mps 593 mmHg 93%
    03:00 +13°C° 0 mm 1 mps 593 mmHg 92%
    04:00 +13°C° 0 mm 1 mps 593 mmHg 91%
    05:00 +13°C° 0 mm 1 mps 593 mmHg 89%
    06:00 +13°C° 0 mm 1 mps 593 mmHg 88%
    07:00 +15°C° 0 mm 1 mps 594 mmHg 81%
    08:00 +19°C° 0 mm 1 mps 596 mmHg 74%
    09:00 +21°C° 0 mm 1 mps 597 mmHg 66%
    10:00 +22°C° 0.6 mm 1 mps 597 mmHg 70%
    11:00 +22°C° 0.6 mm 1 mps 597 mmHg 73%
    12:00 +21°C° 0.6 mm 2 mps 597 mmHg 77%
    13:00 +20°C° 2 mm 2 mps 596 mmHg 80%
    14:00 +21°C° 2 mm 1 mps 595 mmHg 84%
    15:00 +20°C° 2 mm 1 mps 595 mmHg 88%
    16:00 +19°C° 1 mm 1 mps 594 mmHg 91%
    17:00 +18°C° 1 mm 1 mps 594 mmHg 93%
    18:00 +16°C° 1 mm 0 mps 594 mmHg 96%
    19:00 +16°C° 0.3 mm 1 mps 594 mmHg 96%
    20:00 +15°C° 0.3 mm 1 mps 594 mmHg 95%
    21:00 +14°C° 0.3 mm 1 mps 594 mmHg 94%
    22:00 +14°C° 0.1 mm 1 mps 594 mmHg 94%
    23:00 +14°C° 0.1 mm 1 mps 594 mmHg 93%

    Tomorrow, 22 August, Thursday

    Time Temperature Precipitation Wind Pressure Humidity
    00:00 +14°C° 0.1 mm 1 mps 594 mmHg 92%
    01:00 +14°C° 0 mm 1 mps 594 mmHg 92%
    02:00 +14°C° 0 mm 1 mps 593 mmHg 91%
    03:00 +14°C° 0 mm 1 mps 593 mmHg 91%
    04:00 +14°C° 0 mm 1 mps 593 mmHg 90%
    05:00 +14°C° 0 mm 1 mps 593 mmHg 89%
    06:00 +14°C° 0 mm 1 mps 593 mmHg 88%
    07:00 +15°C° 0.1 mm 1 mps 594 mmHg 84%
    08:00 +18°C° 0.1 mm 1 mps 595 mmHg 80%
    09:00 +20°C° 0.1 mm 1 mps 596 mmHg 76%
    10:00 +21°C° 0.1 mm 1 mps 597 mmHg 70%
    11:00 +23°C° 0.1 mm 2 mps 597 mmHg 65%
    12:00 +24°C° 0.1 mm 2 mps 598 mmHg 59%
    13:00 +23°C° 0.5 mm 2 mps 597 mmHg 65%
    14:00 +21°C° 0.5 mm 2 mps 596 mmHg 71%
    15:00 +21°C° 0.5 mm 2 mps 596 mmHg 76%
    16:00 +21°C° 0.3 mm 1 mps 595 mmHg 82%
    17:00 +19°C° 0.3 mm 1 mps 594 mmHg 87%
    18:00 +18°C° 0.3 mm 1 mps 594 mmHg 92%
    19:00 +16°C° 0 mm 1 mps 594 mmHg 93%
    20:00 +15°C° 0 mm 1 mps 594 mmHg 93%
    21:00 +14°C° 0 mm 1 mps 594 mmHg 94%
    22:00 +14°C° 0 mm 1 mps 594 mmHg 94%
    23:00 +13°C° 0 mm 1 mps 594 mmHg 94%

    Day after tomorrow, 23 August, Friday

    Time Temperature Precipitation Wind Pressure Humidity
    00:00 +13°C° 0 mm 1 mps 594 mmHg 93%
    01:00 +13°C° 0 mm 1 mps 593 mmHg 92%
    02:00 +13°C° 0 mm 1 mps 593 mmHg 91%
    03:00 +13°C° 0 mm 1 mps 593 mmHg 90%
    04:00 +13°C° 0 mm 1 mps 593 mmHg 89%
    05:00 +13°C° 0 mm 1 mps 593 mmHg 88%
    06:00 +13°C° 0 mm 1 mps 593 mmHg 87%
    07:00 +16°C° 0 mm 1 mps 595 mmHg 77%
    08:00 +19°C° 0 mm 1 mps 596 mmHg 67%
    09:00 +22°C° 0 mm 1 mps 598 mmHg 57%
    10:00 +23°C° 0.1 mm 1 mps 598 mmHg 55%
    11:00 +24°C° 0.1 mm 2 mps 598 mmHg 54%
    12:00 +24°C° 0.1 mm 2 mps 598 mmHg 52%
    13:00 +23°C° 1 mm 2 mps 597 mmHg 60%
    14:00 +21°C° 1 mm 2 mps 596 mmHg 68%
    15:00 +20°C° 1 mm 2 mps 595 mmHg 77%
    16:00 +20°C° 0.8 mm 1 mps 595 mmHg 81%
    17:00 +19°C° 0.8 mm 1 mps 594 mmHg 85%
    18:00 +18°C° 0.8 mm 1 mps 594 mmHg 90%
    19:00 +16°C° 0.1 mm 1 mps 594 mmHg 89%
    20:00 +15°C° 0.1 mm 1 mps 594 mmHg 89%
    21:00 +14°C° 0.1 mm 2 mps 594 mmHg 88%
    22:00 +14°C° 0 mm 2 mps 594 mmHg 88%
    23:00 +13°C° 0 mm 2 mps 594 mmHg 87%

    24 August, Saturday

    Time Temperature Precipitation Wind Pressure Humidity
    00:00 +13°C° 0 mm 2 mps 594 mmHg 87%
    01:00 +13°C° 0 mm 2 mps 593 mmHg 86%
    02:00 +13°C° 0 mm 2 mps 593 mmHg 86%
    03:00 +13°C° 0 mm 2 mps 593 mmHg 86%
    04:00 +13°C° 0 mm 2 mps 593 mmHg 84%
    05:00 +13°C° 0 mm 2 mps 593 mmHg 81%
    06:00 +13°C° 0 mm 2 mps 593 mmHg 79%
    07:00 +16°C° 0 mm 1 mps 595 mmHg 69%
    08:00 +20°C° 0 mm 1 mps 596 mmHg 58%
    09:00 +23°C° 0 mm 1 mps 598 mmHg 48%
    10:00 +23°C° 0 mm 1 mps 598 mmHg 47%
    11:00 +24°C° 0 mm 2 mps 598 mmHg 46%
    12:00 +25°C° 0 mm 2 mps 598 mmHg 46%
    13:00 +25°C° 0.4 mm 2 mps 597 mmHg 51%
    14:00 +24°C° 0.4 mm 2 mps 597 mmHg 56%
    15:00 +23°C° 0.4 mm 2 mps 596 mmHg 62%
    16:00 +21°C° 0.2 mm 2 mps 595 mmHg 70%
    17:00 +20°C° 0.2 mm 1 mps 595 mmHg 79%
    18:00 +19°C° 0.2 mm 1 mps 594 mmHg 87%
    19:00 +18°C° 0.1 mm 1 mps 594 mmHg 89%
    20:00 +16°C° 0.1 mm 1 mps 594 mmHg 91%
    21:00 +15°C° 0.1 mm 2 mps 594 mmHg 92%
    22:00 +14°C° 0 mm 2 mps 594 mmHg 91%
    23:00 +14°C° 0 mm 2 mps 594 mmHg 89%

    25 August, Sunday

    Time Temperature Precipitation Wind Pressure Humidity
    00:00 +13°C° 0 mm 2 mps 593 mmHg 88%
    01:00 +13°C° 0 mm 2 mps 593 mmHg 83%
    02:00 +13°C° 0 mm 2 mps 592 mmHg 79%
    03:00 +13°C° 0 mm 2 mps 592 mmHg 75%
    04:00 +13°C° 0 mm 2 mps 592 mmHg 74%
    05:00 +13°C° 0 mm 2 mps 592 mmHg 72%
    06:00 +13°C° 0 mm 2 mps 592 mmHg 70%
    07:00 +15°C° 0 mm 2 mps 594 mmHg 64%
    08:00 +19°C° 0 mm 1 mps 595 mmHg 57%
    09:00 +22°C° 0 mm 1 mps 597 mmHg 51%
    10:00 +23°C° 0 mm 1 mps 597 mmHg 51%
    11:00 +24°C° 0 mm 2 mps 597 mmHg 51%
    12:00 +25°C° 0 mm 2 mps 597 mmHg 51%
    13:00 +24°C° 0.6 mm 2 mps 596 mmHg 58%
    14:00 +23°C° 0.6 mm 2 mps 595 mmHg 65%
    15:00 +21°C° 0.6 mm 2 mps 594 mmHg 72%
    16:00 +21°C° 0.4 mm 1 mps 594 mmHg 79%
    17:00 +19°C° 0.4 mm 1 mps 594 mmHg 86%
    18:00 +18°C° 0.4 mm 1 mps 593 mmHg 93%
    19:00 +16°C° 0.1 mm 1 mps 593 mmHg 93%
    20:00 +15°C° 0.1 mm 1 mps 593 mmHg 94%
    21:00 +14°C° 0.1 mm 1 mps 593 mmHg 94%
    22:00 +14°C° 0 mm 1 mps 593 mmHg 94%
    23:00 +14°C° 0 mm 1 mps 593 mmHg 94%

    26 August, Monday

    Time Temperature Precipitation Wind Pressure Humidity
    00:00 +14°C° 0 mm 1 mps 592 mmHg 93%
    01:00 +13°C° 0 mm 1 mps 592 mmHg 92%
    02:00 +13°C° 0 mm 1 mps 592 mmHg 91%
    03:00 +13°C° 0 mm 1 mps 591 mmHg 90%
    04:00 +13°C° 0 mm 1 mps 592 mmHg 88%
    05:00 +13°C° 0 mm 1 mps 592 mmHg 86%
    06:00 +13°C° 0 mm 1 mps 592 mmHg 84%
    07:00 +15°C° 0 mm 1 mps 593 mmHg 75%
    08:00 +19°C° 0 mm 1 mps 595 mmHg 66%
    09:00 +22°C° 0 mm 1 mps 596 mmHg 57%
    10:00 +23°C° 0 mm 1 mps 596 mmHg 56%
    11:00 +23°C° 0 mm 2 mps 596 mmHg 54%
    12:00 +24°C° 0 mm 2 mps 597 mmHg 53%
    13:00 +23°C° 1.1 mm 2 mps 595 mmHg 63%
    14:00 +22°C° 1.1 mm 1 mps 594 mmHg 74%
    15:00 +20°C° 1.1 mm 1 mps 593 mmHg 84%
    16:00 +19°C° 2.1 mm 1 mps 593 mmHg 87%
    17:00 +18°C° 2.1 mm 1 mps 593 mmHg 90%
    18:00 +16°C° 2.1 mm 1 mps 593 mmHg 93%
    19:00 +15°C° 0.4 mm 1 mps 593 mmHg 92%
    20:00 +15°C° 0.4 mm 1 mps 593 mmHg 91%
    21:00 +14°C° 0.4 mm 1 mps 593 mmHg 90%
    22:00 +14°C° 0.1 mm 1 mps 593 mmHg 90%
    23:00 +14°C° 0.1 mm 1 mps 593 mmHg 90%
    Show more